Location: Pompeys Pillar
(45.9913°N, 107.9528°W)
Time: 03:57:42
(UTC+00:00)

N. Korean satellite - Visible Passes

Search period start: 18 January 2022 00:00
Search period end: 28 January 2022 00:00
Orbit: 446 x 492 km, 97.3° (Epoch: 17 January)

Date Brightness Start Highest point End Pass type
(mag) Time Alt. Az. Time Alt. Az. Time Alt. Az.
18 Jan 8.0 12:50:57 10° N 12:52:39 25° N 12:52:39 25° N visible
19 Jan 8.2 12:21:50 10° NNE 12:23:35 27° NNE 12:23:35 27° NNE visible
19 Jan 8.6 13:57:03 10° NW 13:57:39 11° NW 13:57:39 11° NW visible
20 Jan 9.6 00:32:09 10° SW 00:34:29 17° W 00:36:50 10° NW visible
20 Jan 9.1 11:53:03 10° NE 11:54:30 19° NE 11:54:30 19° NE visible
20 Jan 8.0 13:26:26 10° NNW 13:28:34 20° NW 13:28:34 20° NW visible
21 Jan 9.9 11:25:02 10° ENE 11:25:25 11° ENE 11:25:25 11° ENE visible
21 Jan 7.2 12:56:48 10° N 12:59:29 38° NW 12:59:29 38° NW visible
22 Jan 7.1 12:27:34 10° NNE 12:30:24 51° NNE 12:30:24 51° NNE visible
23 Jan 9.7 00:38:13 10° SW 00:40:15 15° W 00:42:18 10° NW visible
23 Jan 8.4 11:58:40 10° NNE 12:01:18 30° ENE 12:01:18 30° ENE visible
23 Jan 8.0 13:32:18 10° NNW 13:34:55 19° WNW 13:35:23 18° WNW visible
24 Jan 9.6 11:30:21 10° NE 11:32:13 15° E 11:32:13 15° E visible
24 Jan 7.0 13:02:31 10° N 13:05:56 38° WNW 13:06:17 37° W visible
25 Jan 6.4 12:33:09 10° NNE 12:36:49 89° WNW 12:37:11 71° SSW visible
26 Jan 9.9 00:44:13 10° WSW 00:45:52 13° W 00:47:32 10° WNW visible
26 Jan 8.0 12:04:08 10° NNE 12:07:34 38° E 12:08:07 36° ESE visible
26 Jan 8.1 13:38:03 10° NNW 13:40:25 17° WNW 13:42:10 13° W visible
27 Jan 9.4 11:35:37 10° NE 11:38:11 18° E 11:39:02 17° ESE visible
27 Jan 7.2 13:08:06 10° N 13:11:25 33° WNW 13:13:06 22° WSW visible
